Weather reports worldwide

Advertisment
Aboyne, United Kingdom (3080): temperature & dewpoint: 21.04.2017 04:00:00 - 27.04.2017 04:00:00 (BST)Aboyne, United Kingdom (3080): temperature -20cm & temperature -100cm: 21.04.2017 04:00:00 - 27.04.2017 04:00:00 (BST)Aboyne, United Kingdom (3080): wind speed & gusts: 21.04.2017 04:00:00 - 27.04.2017 04:00:00 (BST)Aboyne, United Kingdom (3080): wind direction: 21.04.2017 04:00:00 - 27.04.2017 04:00:00 (BST)Aboyne, United Kingdom (3080): reduced air pressure: 21.04.2017 04:00:00 - 27.04.2017 04:00:00 (BST)Aboyne, United Kingdom (3080): visibility: 21.04.2017 04:00:00 - 27.04.2017 04:00:00 (BST)Aboyne, United Kingdom (3080): precipitation: 21.04.2017 04:00:00 - 27.04.2017 04:00:00 (BST)
Date & Time tt [°C] td [°C] tt -20cm [°C] tt -100cm [°C] ff [km/h] ff [kn] fx [km/h] fx [kn] dd ppp [hPa] vv [km] rr [mm]
27.04.2017 04:00:00 5,7 3,1 - - 18 10 - - WNW 1015,8 35 -
27.04.2017 03:00:00 5,8 3,2 - - 18 10 - - WNW 1016,3 50 0,0
27.04.2017 02:00:00 5,6 3,8 - - 16 9 - - WNW 1016,7 11 0,0
27.04.2017 01:00:00 6,0 3,4 - - 21 11 - - WNW 1016,9 35 0,0
27.04.2017 00:00:00 5,7 2,8 - - 18 10 - - W 1017,5 50 0,0
26.04.2017 23:00:00 4,5 2,3 - - 16 9 - - W 1018,0 50 0,0
26.04.2017 22:00:00 4,8 2,8 - - 13 7 - - WNW 1018,6 20 0,0
26.04.2017 21:00:00 5,7 2,4 - - 13 7 - - WNW 1019,0 40 0,0
26.04.2017 20:00:00 6,9 1,9 - - 16 9 - - W 1018,8 50 0,0
26.04.2017 19:00:00 7,2 1,3 - - 16 9 - - W 1018,9 40 0,0
26.04.2017 18:00:00 7,7 0,9 - - 15 8 - - NW 1019,2 45 0,0
26.04.2017 17:00:00 7,3 0,6 - - 16 9 - - WNW 1019,7 40 0,0
26.04.2017 16:00:00 7,6 -0,1 - - 16 9 - - NNW 1020,0 50 0,0
26.04.2017 15:00:00 7,8 -0,2 - - 15 8 - - NW 1020,3 29 0,0
26.04.2017 14:00:00 6,4 -1,1 - - 24 13 - - NNW 1020,7 45 0,0
26.04.2017 13:00:00 5,0 -0,9 - - 18 10 - - WNW 1020,8 50 0,0
26.04.2017 12:00:00 6,1 0,9 - - 16 9 - - NW 1020,8 45 0,0
26.04.2017 11:00:00 4,7 0,7 - - 18 10 - - WNW 1021,0 29 0,0
26.04.2017 10:00:00 3,8 -0,1 7,4 7,7 21 11 - - WNW 1021,2 45 0,0
26.04.2017 09:00:00 3,8 0,1 - - 16 9 - - WNW 1020,9 27 0,0
26.04.2017 08:00:00 2,0 -1,1 - - 15 8 - - WNW 1020,9 26 0,0
26.04.2017 07:00:00 1,4 -1,0 - - 11 6 - - W 1020,8 30 0,4
26.04.2017 06:00:00 1,2 -0,4 - - 11 6 - - WNW 1020,7 6 0,0
26.04.2017 05:00:00 1,1 -0,1 - - 9 5 - - NNW 1020,8 4,2 0,0
26.04.2017 04:00:00 0,9 -0,1 - - 15 8 - - W 1020,7 26 0,0
26.04.2017 03:00:00 1,3 0,1 - - 15 8 - - NNW 1020,8 2,5 0,2
26.04.2017 02:00:00 1,0 -0,2 - - 18 10 - - NNW 1020,8 2,2 0,0
26.04.2017 01:00:00 1,1 -1,5 - - 13 7 - - WNW 1020,7 25 0,0
26.04.2017 00:00:00 1,1 -1,5 - - 13 7 - - NW 1020,8 26 0,0
25.04.2017 23:00:00 1,0 -1,3 - - 13 7 - - NW 1020,8 23 0,0
25.04.2017 22:00:00 1,6 -0,8 - - 16 9 - - NNW 1020,5 24 0,2
25.04.2017 21:00:00 2,2 0,6 - - 15 8 - - NW 1020,2 15 0,0
25.04.2017 20:00:00 1,6 0,7 - - 15 8 - - WNW 1020,0 27 0,4
25.04.2017 19:00:00 3,2 1,1 - - 18 10 48 26 N 1019,4 22 0,4
25.04.2017 18:00:00 5,2 1,4 - - 16 9 - - NW 1018,3 27 0,0
25.04.2017 17:00:00 5,3 1,0 - - 21 11 - - NNW 1017,9 19 0,2
25.04.2017 16:00:00 3,6 2,1 - - 11 6 - - WNW 1017,7 14 0,0
25.04.2017 15:00:00 2,2 1,2 - - 22 12 - - NNW 1018,2 6 2,2
25.04.2017 14:00:00 0,9 0,4 - - 22 12 - - NW 1017,9 1,1 1,0
25.04.2017 13:00:00 2,1 1,8 - - 8 4 - - W 1016,9 10 1,6
25.04.2017 12:00:00 2,4 1,3 - - 22 12 - - WNW 1016,4 9 0,6
25.04.2017 11:00:00 3,2 2,2 - - 15 8 - - WNW 1015,3 29 0,8
25.04.2017 10:00:00 1,8 1,3 8,0 7,7 16 9 - - NW 1015,0 20 2,8
25.04.2017 09:00:00 1,3 0,7 - - 16 9 50 27 NW 1014,4 1,8 3,4
25.04.2017 08:00:00 1,2 1,0 - - 15 8 - - WNW 1013,8 16 3,4
25.04.2017 07:00:00 2,2 0,3 - - 24 13 46 25 NW 1013,1 18 1,4
25.04.2017 06:00:00 1,3 0,3 - - 22 12 54 29 WNW 1013,0 7 0,2
25.04.2017 05:00:00 0,9 0,4 - - 24 13 - - WNW 1013,3 12 0,0
25.04.2017 04:00:00 1,2 -0,1 - - 18 10 - - WNW 1013,3 40 0,0
25.04.2017 03:00:00 0,9 0,2 - - 11 6 - - W 1013,2 50 0,0
25.04.2017 02:00:00 0,3 0,2 - - 13 7 - - WNW 1013,4 1,3 0,0
25.04.2017 01:00:00 -1,2 -1,5 - - 13 7 - - W 1013,8 50 0,0
25.04.2017 00:00:00 -0,9 -1,0 - - 9 5 - - W 1014,0 40 0,0
24.04.2017 23:00:00 -0,4 -0,7 - - 4 2 - - W 1013,8 30 0,0
24.04.2017 22:00:00 0,3 0,2 - - 8 4 - - SE 1012,1 18 0,0
24.04.2017 21:00:00 0,9 -2,2 - - 16 9 - - WNW 1011,4 45 0,0
24.04.2017 20:00:00 1,9 -1,7 - - 13 7 - - WNW 1011,1 29 0,0
24.04.2017 19:00:00 3,3 -0,9 - - 15 8 - - WNW 1011,2 35 0,0
24.04.2017 18:00:00 2,1 -0,3 - - 18 10 - - WNW 1011,8 30 0,2
24.04.2017 17:00:00 1,2 0,3 - - 16 9 - - W 1012,6 22 0,6
24.04.2017 16:00:00 0,2 0,1 - - 21 11 48 26 WNW 1012,6 0,1 0,6
24.04.2017 15:00:00 1,8 0,8 - - 26 14 54 29 NW 1011,0 6 0,6
24.04.2017 14:00:00 6,1 0,3 - - 26 14 - - NW 1009,0 35 0,0
24.04.2017 13:00:00 4,8 1,5 - - 21 11 55 30 WNW 1009,0 45 0,4
24.04.2017 12:00:00 3,9 1,6 - - 22 12 - - W 1009,4 8 0,0
24.04.2017 11:00:00 7,3 -3,0 - - 22 12 - - W 1009,6 35 0,0
24.04.2017 10:00:00 6,7 -2,3 8,2 7,7 18 10 - - WNW 1010,4 35 0,0
24.04.2017 09:00:00 6,7 -0,1 - - 18 10 - - WNW 1011,4 35 0,0
24.04.2017 08:00:00 3,1 -1,3 - - 21 11 - - W 1012,5 30 0,0
24.04.2017 07:00:00 3,2 1,0 - - 21 11 - - WNW 1012,9 45 0,2
24.04.2017 06:00:00 2,7 1,1 - - 11 6 - - WNW 1013,1 45 0,0
24.04.2017 05:00:00 2,5 0,3 - - 13 7 - - WNW 1013,1 50 0,0
24.04.2017 04:00:00 3,1 1,1 - - 11 6 - - NNW 1013,7 50 0,0
24.04.2017 03:00:00 3,4 0,0 - - 11 6 - - W 1013,7 45 0,0
24.04.2017 02:00:00 4,3 0,6 - - 22 12 - - W 1013,5 40 0,0
24.04.2017 01:00:00 5,1 3,4 - - 11 6 55 30 W 1013,3 30 0,0
24.04.2017 00:00:00 7,1 5,5 - - 15 8 - - W 1012,2 17 0,2
23.04.2017 23:00:00 7,9 3,7 - - 18 10 - - W 1012,3 50 0,0
23.04.2017 22:00:00 8,2 2,8 - - 18 10 - - WSW 1013,2 50 0,0
23.04.2017 21:00:00 8,9 2,5 - - 34 18 48 26 W 1013,8 50 0,0
23.04.2017 20:00:00 9,4 2,2 - - 28 15 - - W 1014,4 50 0,0
23.04.2017 19:00:00 10,2 1,7 - - 22 12 - - W 1015,5 40 0,0
23.04.2017 18:00:00 11,4 1,6 - - 29 16 48 26 W 1015,9 45 0,0
23.04.2017 17:00:00 12,5 1,9 - - 28 15 - - W 1016,7 45 0,0
23.04.2017 16:00:00 12,2 1,2 - - 24 13 - - W 1017,7 40 0,0
23.04.2017 15:00:00 11,0 0,9 - - 28 15 - - W 1018,8 50 0,0
23.04.2017 14:00:00 11,4 1,0 - - 24 13 - - WSW 1020,0 45 0,0
23.04.2017 13:00:00 11,7 0,4 - - 16 9 - - W 1020,8 35 0,0
23.04.2017 12:00:00 11,5 1,8 - - 16 9 - - W 1022,0 35 0,0
23.04.2017 11:00:00 9,1 1,4 - - 18 10 - - W 1023,0 45 0,0
23.04.2017 10:00:00 8,4 1,3 8,2 7,5 15 8 - - W 1023,6 30 0,0
23.04.2017 09:00:00 7,8 1,4 - - 11 6 - - W 1024,2 45 0,0
23.04.2017 08:00:00 5,1 1,5 - - 4 2 - - SE 1024,8 45 0,0
23.04.2017 07:00:00 2,9 0,8 - - 5 3 - - W 1025,3 50 0,0
23.04.2017 06:00:00 3,2 0,8 - - 11 6 - - WSW 1025,6 50 0,0
23.04.2017 05:00:00 0,1 0,0 - - 2 1 - - E 1026,4 45 0,0
23.04.2017 04:00:00 -0,7 -1,5 - - 5 3 - - W 1026,6 40 0,0
23.04.2017 03:00:00 0,4 -0,6 - - 4 2 - - WNW 1026,9 40 0,0
23.04.2017 02:00:00 1,3 -0,2 - - 4 2 - - NNW 1027,5 40 0,0
23.04.2017 01:00:00 1,9 1,4 - - 2 1 - - WNW 1028,0 50 0,0
23.04.2017 00:00:00 1,9 1,4 - - 2 1 - - NW 1028,3 50 0,0
22.04.2017 23:00:00 1,8 0,4 - - 5 3 - - WSW 1028,6 50 0,0
22.04.2017 22:00:00 3,1 1,0 - - 4 2 - - N 1028,7 40 0,0
22.04.2017 21:00:00 4,4 1,3 - - 9 5 - - N 1028,2 50 0,0
22.04.2017 20:00:00 5,7 1,2 - - 13 7 - - NNW 1028,0 50 0,0
22.04.2017 19:00:00 6,7 1,7 - - 13 7 - - NNW 1027,9 30 0,0
22.04.2017 18:00:00 8,4 -0,9 - - 22 12 - - NNW 1027,6 40 0,0
22.04.2017 17:00:00 9,1 0,7 - - 22 12 - - NW 1027,7 40 0,0
22.04.2017 16:00:00 9,7 0,4 - - 21 11 - - NW 1028,0 50 0,0
22.04.2017 15:00:00 7,3 0,1 - - 21 11 - - WNW 1028,6 45 0,0
22.04.2017 14:00:00 8,6 0,1 - - 18 10 - - NW 1028,7 50 0,0
22.04.2017 13:00:00 7,6 -1,7 - - 21 11 - - NW 1029,1 50 0,0
22.04.2017 12:00:00 8,5 0,1 - - 22 12 - - NW 1029,2 40 0,0
22.04.2017 11:00:00 5,8 2,1 - - 15 8 - - W 1029,6 40 0,2
22.04.2017 10:00:00 4,2 1,6 8,2 7,4 13 7 - - WNW 1029,9 30 0,0
22.04.2017 09:00:00 4,9 1,1 - - 18 10 - - NW 1029,8 27 0,0
22.04.2017 08:00:00 3,5 1,5 - - 13 7 - - WNW 1029,7 50 0,0
22.04.2017 07:00:00 2,5 1,9 - - 9 5 - - WNW 1029,6 26 0,4
22.04.2017 06:00:00 2,6 1,2 - - 15 8 - - NW 1029,4 35 0,0
22.04.2017 05:00:00 3,8 0,4 - - 15 8 - - WNW 1029,0 30 0,0
22.04.2017 04:00:00 3,9 0,2 - - 11 6 - - WNW 1029,2 29 0,0
22.04.2017 03:00:00 3,9 0,4 - - 9 5 - - W 1029,4 35 0,0
22.04.2017 02:00:00 4,1 0,3 - - 15 8 - - WNW 1029,6 30 0,0
22.04.2017 01:00:00 4,3 0,3 - - 16 9 - - WNW 1029,5 30 0,0
22.04.2017 00:00:00 3,5 1,1 - - 11 6 - - W 1029,6 30 0,2
21.04.2017 23:00:00 5,2 0,2 - - 16 9 - - WNW 1029,4 24 0,0
21.04.2017 22:00:00 5,3 -0,3 - - 15 8 - - NW 1029,1 30 0,0
21.04.2017 21:00:00 5,8 -0,5 - - 21 11 - - NW 1028,7 40 0,0
21.04.2017 20:00:00 7,2 -0,5 - - 21 11 - - WNW 1028,1 40 0,0
21.04.2017 19:00:00 8,7 0,9 - - 16 9 - - WNW 1027,9 40 0,0
21.04.2017 18:00:00 8,9 0,9 - - 18 10 - - WNW 1027,2 35 0,0
21.04.2017 17:00:00 9,4 0,9 - - 24 13 48 26 NW 1026,9 35 0,0
21.04.2017 16:00:00 8,4 3,2 - - 18 10 46 25 WNW 1026,8 50 0,0
21.04.2017 15:00:00 10,5 2,3 - - 22 12 - - WNW 1026,3 35 0,0
21.04.2017 14:00:00 8,9 4,9 - - 29 16 50 27 NNW 1026,8 30 0,0
21.04.2017 13:00:00 11,0 5,8 - - 24 13 - - WNW 1025,8 40 0,0
21.04.2017 12:00:00 8,1 5,5 - - 11 6 - - W 1026,2 45 0,0
21.04.2017 11:00:00 7,4 5,4 - - 13 7 - - NNW 1026,3 24 0,2
21.04.2017 10:00:00 7,8 6,1 8,4 7,2 13 7 - - WNW 1025,4 16 0,0
21.04.2017 09:00:00 7,8 6,8 - - 15 8 46 25 N 1024,6 12 0,4
21.04.2017 08:00:00 10,8 7,4 - - 22 12 - - W 1022,9 30 0,0
21.04.2017 07:00:00 11,1 6,5 - - 16 9 - - W 1022,9 50 0,0
21.04.2017 06:00:00 10,9 6,4 - - 21 11 - - W 1023,4 50 0,0
21.04.2017 05:00:00 10,5 6,5 - - 11 6 - - W 1024,0 50 0,0
21.04.2017 04:00:00 10,7 6,2 - - 13 7 - - WSW 1024,8 50 0,0

tt = temperature
td = dewpoint
tt -20cm = temperature -20cm
tt -100cm = temperature -100cm
ff = wind speed
fx = gusts
dd = wind direction
ppp = reduced air pressure
vv = visibility
rr = precipitation

Next stations